Notices

What's New in latest Release from April 7th, 2021:

- Updated Glossary, including Speed of Maximum Gust, and Total Hourly Precipitation

- Updated national and regional climate services offices contacts and prices information

- Addition of station inventory lists for 1981-2010, 1971-2000, and 1961-1990 Normals.

If you haven't already, please take our survey and provide feedback about our website: https://eccc.sondage-survey.ca/f/LanguageSelection.aspx?s=442ca660-fcf1-47c0-95a9-59707d6fd709

Hourly Data Report for April 12, 2021

CARBERRY CS
MANITOBA
Current Station Operator: ECCC - MSC

49°54'20.900" N
99°21'26.800" W
383.50 m
5010547
71170
WZE

Download Data

Hourly Data (April 2021)
Hourly Data Report for April 12, 2021
TIME
LST
Temp Definition
°C
Dew Point Definition
°C
Rel Hum Definition
%
Precip. Amount Definition
mm

Wind Dir Definition
10's deg

Wind Spd Definition
km/h
Visibility Definition
km
Stn Press Definition
kPa
Hmdx Definition


Wind Chill Definition


Weather Definition


00:00 0.2 0.2 100 0.0 2 26   96.65     LegendNANA
01:00 -0.3 -0.3 100 0.0 1 24   96.68   -6 LegendNANA
02:00 -0.9 -1.0 100 0.0 1 25   96.70   -7 LegendNANA
03:00 -1.5 -1.7 99 0.0 1 26   96.69   -8 LegendNANA
04:00 -2.1 -2.7 96 0.0 36 27   96.71   -9 LegendNANA
05:00 -2.8 -3.9 93 0.0 36 29   96.73   -10 LegendNANA
06:00 -3.4 -4.2 94 0.0 36 24   96.75   -10 LegendNANA
07:00 -4.0 -4.7 95 0.0 35 25   96.76   -11 LegendNANA
08:00 -4.4 -5.7 91 0.3 35 27   96.79   -12 LegendNANA
09:00 -4.6 -6.0 90 0.6 35 27   96.82   -12 LegendNANA
10:00 -4.6 -6.3 88 0.2 36 30   96.84   -12 LegendNANA
11:00 -4.4 -6.3 86 0.3 36 28   96.84   -12 LegendNANA
12:00 -4.5 -5.9 90 0.2 36 26   96.84   -12 LegendNANA
13:00 -5.1 -7.2 85 0.3 36 27   96.85   -13 LegendNANA
14:00 -5.3 -7.5 84 0.2 35 31   96.85   -14 LegendNANA
15:00 -5.6 -7.3 87 0.3 36 31   96.90   -14 LegendNANA
16:00 -5.5 -7.4 87 0.5 36 30   96.91   -14 LegendNANA
17:00 -5.8 -7.0 91 0.2 36 27   96.97   -14 LegendNANA
18:00 -5.6 -8.0 83 0.3 1 31   97.05   -14 LegendNANA
19:00 -5.9 -7.6 87 0.0 36 25   97.08   -13 LegendNANA
20:00 -6.1 -7.4 91 0.2 36 25   97.13   -14 LegendNANA
21:00 -6.0 -7.4 90 0.0 36 23   97.13   -13 LegendNANA
22:00 -5.9 -7.3 90 0.2 36 23   97.16   -13 LegendNANA
23:00 -5.9 -7.7 87 0.0 36 24   97.17   -13 LegendNANA

Notes on Data Quality.

Legend

  • E = Estimated
  • M = Missing
  • NA = Not Available*
  • [empty] = Indicates an unobserved value
Date modified: